Location: Asheville, NC
(35.6000°N, 82.5500°W)
Time: 14:26:56
(UTC-04:00)

Vanguard 1 - Pass Details

Date: 15 December 2017
Orbit: 650 x 3833 km, 34.2° (Epoch: 24 April)

Event Time Altitude Azimuth Distance (km) Brightness Sun altitude
Rises 13:28:19 0° 280° (W) 7,169 14.5 29.3°
Reaches altitude 10° 13:33:47 10° 279° (W) 5,710 14.1 28.9°
Maximum altitude 13:49:04 70° 200° (SSW) 1,868 12.4 27.9°
Drops below altitude 10° 13:57:01 10° 118° (ESE) 3,142 12.8 27.2°
Sets 13:59:11 0° 115° (ESE) 3,851 13.1 27.1°
